IRIDIUM 33 DEB

Satellite information

Favourite Embed

Satellite Type and Status

DEBRISIN ORBIT

Key statistics

Satellite IRIDIUM 33 DEB at a glance.

Uptime

10103

Days in orbit

Revolutions

≈ 14.7

Per day

Orbit

LEO

Low Earth Orbit

Inclination

86.3

Latest

Satellite identification and parameters

Extended collection of information and parameters for IRIDIUM 33 DEB.

Object identification

Identified? True

Debris? True

Object name: IRIDIUM 33 DEB

International designator: 1997-051TA

Object number (NORAD): 35850

Object ID (CCSDS): 35850

Country: UNITED STATES OF AMERICA (US)

Current information (Y/N): Y

RCS size: SMALL

Orbital parameters

Period: 97.715 minutes

Inclination: 86.3486 deg

SMA: 7027.524 km

Apoapsis: 655.189 km

Periapsis: 643.59 km

RAAN: 82.502 deg

Eccentricy: 0.0008252

Argument of periapsis: 230.7405 deg

Mean anomaly: 129.3081 deg

Mean motion: 14.73666527 rev/day

Mean motion (dot): 0.00009429 rev/day2

B* drag term: 0.0014412 1/REarth

Two-line elements (TLE)

Creation date: May 10, 2025, 10:36 p.m.

Reference frame: TEME

Reference center: EARTH

Epoch: May 9, 2025, 3:08 p.m. UTC

TLE line 0: 0 IRIDIUM 33 DEB

TLE line 1: 1 35850U 97051TA 25129.63099894 .00009429 00000-0 14412-2 0 9998

TLE line 2: 2 35850 86.3486 82.5020 0008252 230.7405 129.3081 14.73666527842345

Live tracking on map

Real-time ground track for satellite IRIDIUM 33 DEB.

In-orbit conjunctions

A list of the most updated potential collisions computed for object IRIDIUM 33 DEB.

Target Orbit TCA Probability of collision Miss distance Type
CZ-6A DEB LEO 2024-11-16 09:13:28 0.0003514747 343.0 (m) DEBRIS
FENGYUN 1C DEB SSO 2024-11-09 16:09:31 0.000106492 301.0 (m) DEBRIS

Associated space launch

Iridium provides global mobile telecommunications services using a constellation of 66 low earth orbit satellites in a 86.4° inclined orbit. Although 77 satellites were originally envisioned for the system and spawned the name based on the 77th element in the periodic table, the system has been scaled back. Motorola's Satellite Communications Group designed and manufactured the Iridium satellites with Lockheed Martin providing the LM-700A spacecraft buses.

IRIDIUM 33 DEB was lifted into orbit during the mission ‘Proton-K/17S40 | Iridium 27 to 33’, on board a Proton-K/17S40 space rocket.

The launch took place on Sept. 14, 1997, 1:36 a.m. from 81/23 (81L).

For more information about the launch, click the button.

Launch to space Proton-K/17S40 | Iridium 27 to 33
Proton-K/17S40 | Iridium 27 to 33

Agency: N/A

Status: Launch Successful

Launch date: Sept. 14, 1997, 1:36 a.m. UTC

Rocket: Proton-K/17S40

Launch pad: 81/23 (81L)

Location: Baikonur Cosmodrome, Republic of Kazakhstan

...

Latest news about this satellite

There are no fresh news available about this satellite. Check back as we update our databases every day.


Newsletter sign-up

Weekly statistics, charts and insights to help you stay on top of the space industry.